Погода в Марина-ди-Биббоне

Италия     43°14′43″N   10°32′00″E
темп.,
°C
ветер,
м/с
пор.,
м/с
влажн.,
%
обл.,
%
осадки,
мм/ч
давл.,
гПа
погр.,
м
8 мая, сб
сб823:00+16сз347314 0.0 101361
02:00+13св56850 0.0 1014101
05:00+13всв33855 0.0 101589
08:00+15всв237686 0.0 1017138
11:00+19сз326219 0.0 1018520
14:00+19зсз556724 0.0 1018686
17:00+18зсз566721 0.0 1018361
20:00+16ссз22765 0.0 101828
9 мая, вс
вс923:00+15всв22762 0.0 101918
02:00+15всв22804 0.0 101942
05:00+14в22821 0.0 101861
08:00+16в12755 0.0 1019123
11:00+18зюз33705 0.0 1019493
14:00+19ююз466510 0.0 1019436
17:00+19ю5966100 0.0 1017367
20:00+17ююв5973100 0.0 1017211
10 мая, пн
пн1023:00+15вюв3480100 0.0 101859
02:00+15вюв238136 0.0 101761
05:00+15вюв47825 0.0 1016176
08:00+17в47734 0.0 1017259
11:00+21ююв610575 0.0 1016485
14:00+21ююв9145521 0.0 1016616
17:00+19ю71262100 0.0 1016444
20:00+18ю51167100 0.0 1016351
11 мая, вт
вт1123:00+18юв366797 0.0 1014155
02:00+15всв227327 0.0 101434
05:00+16в3670100 0.0 1012150
08:00+16юв4975100 0.6 1013292
11:00+16юв71486100 10.4 1012627
14:00+17юв71482100 12.9 1009586
17:00+14зсз5894100 7.3 1010530
20:00+13в3387100 17.2 1008132
12 мая, ср
ср1223:00+13св1281100 0.1 1009101
02:00+12вюв2284100 0.3 1007102
05:00+12в228688 0.0 100795
08:00+13ююз2382100 0.1 1008306
11:00+15з8108229 0.6 1009870
14:00+15з11127234 0.9 1010801
17:00+16з101367100 0.0 10101053
20:00+16з596346 0.0 1010539